G6SGA Weather Reports


Display with metric or nautical units.
time (UTC)temp
F
wind
direction
speed
MPH
gust
MPH
rain 1hr
in
rain 24hr
in
rain mn
in
humidity
%
barometer
mb
20260902124211 59 151 3.0 9.0 0.00 0.14 0.14 96 1017.4
20260902123503 59 147 3.0 11.0 0.00 0.14 0.14 96 1017.4
20260902123003 59 143 3.0 11.0 0.00 0.14 0.14 96 1017.4
20260902122503 59 142 4.0 11.0 0.00 0.14 0.14 96 1017.4
20260902122211 59 143 5.0 11.0 0.00 0.14 0.14 95 1017.4
20260902121710 59 143 4.0 9.0 0.00 0.14 0.14 95 1017.4
20260902121003 59 155 3.0 7.0 0.00 0.14 0.14 95 1017.4
20260902120503 59 156 3.0 8.0 0.00 0.14 0.14 94 1017.4
20260902120004 59 158 3.0 8.0 0.00 0.14 0.14 93 1017.4
20260902115711 59 152 2.0 7.0 0.00 0.14 0.14 93 1017.4
20260902115003 59 157 2.0 7.0 0.00 0.14 0.14 94 1017.4
20260902114711 59 160 2.0 7.0 0.00 0.14 0.14 94 1017.4
20260902114211 59 159 2.0 5.0 0.00 0.14 0.14 94 1017.4
20260902113503 59 183 2.0 5.0 0.00 0.14 0.14 94 1017.4
20260902113003 59 182 3.0 8.0 0.00 0.14 0.14 94 1017.4
20260902112711 59 175 3.0 8.0 0.00 0.14 0.14 94 1017.4
20260902112210 60 180 3.0 8.0 0.00 0.14 0.14 94 1017.4
20260902111503 60 185 3.0 8.0 0.00 0.14 0.14 94 1017.4
20260902111003 60 188 3.0 8.0 0.00 0.14 0.14 92 1017.4
20260902110503 61 197 3.0 7.0 0.00 0.14 0.14 91 1017.4
20260902110007 61 194 3.0 7.0 0.00 0.14 0.14 91 1017.4
20260902105504 60 182 2.0 7.0 0.00 0.14 0.14 92 1017.4
20260902105004 60 173 2.0 7.0 0.00 0.14 0.14 93 1017.4
20260902104711 60 167 3.0 7.0 0.00 0.14 0.14 92 1017.4
20260902104003 60 172 3.0 7.0 0.00 0.14 0.14 93 1017.4
20260902103503 60 166 3.0 8.0 0.00 0.14 0.14 94 1017.4
20260902103004 59 163 3.0 8.0 0.00 0.14 0.14 94 1017.4
20260902102503 59 160 3.0 8.0 0.01 0.14 0.14 96 1017.4
20260902102003 59 150 2.0 8.0 0.01 0.14 0.14 96 1017.4
20260902101711 59 140 2.0 6.0 0.01 0.14 0.14 97 1017.4
20260902101211 59 159 2.0 6.0 0.02 0.14 0.14 97 1017.4
20260902100503 58 151 3.0 9.0 0.03 0.14 0.14 97 1017.4
20260902100004 58 140 3.0 6.0 0.03 0.14 0.14 97 1017.4
20260902095503 58 145 2.0 9.0 0.03 0.14 0.14 98 1017.4
20260902095210 58 145 3.0 9.0 0.03 0.14 0.14 97 1017.4
20260902094711 58 142 3.0 9.0 0.03 0.14 0.14 98 1017.4
20260902094003 57 141 3.0 9.0 0.03 0.14 0.14 98 1017.4
20260902093711 57 137 3.0 9.0 0.03 0.14 0.14 98 1017.4
20260902093003 57 135 2.0 7.0 0.04 0.13 0.13 98 1017.4
20260902092503 57 145 2.0 6.0 0.04 0.13 0.13 98 1017.4
20260902092004 57 155 2.0 5.0 0.04 0.13 0.13 98 1017.4
20260902091504 57 152 2.0 6.0 0.03 0.12 0.12 98 1017.4
20260902091003 57 155 2.0 6.0 0.02 0.11 0.11 98 1017.4